TIME,DELAY(SENSOR),PRES,T(CTD),SAL,OXYGEN,RAWTEMP,T(OPTODE),TCPHASE,FLUOR,BETA(BETA700),BETA(BETA412),BETA(BETA440),CDOM,C(CSC),ED(ED412.40),ED(ED444.00),ED(ED489.70),ED(ED554.30),LU(LU411.80),LU(LU443.40),LU(LU489.60),LU(LU554.10),COMP,TILTX,TILTX(TILTY),CHECK
1371937230,5809,497.1099853515625000,6.0116000175476070,34.1762008666992200,52.0373992919921900,618.3856201171875000,5.9887080192565920,52.7446403503418000,52,103,86,80,79,15282,2147747318,2147426477,2148005952,2147876306,2147632768,2147068608,2148247387,2147197952,619,4,13,43591
1371937357,5810,485.9899902343750000,6.1392998695373535,34.1636009216308600,56.8223114013671900,614.2734985351562000,6.1222000122070310,52.0264205932617200,53,103,87,80,79,15278,2147749888,2147426240,2148006939,2147871323,2147634523,2147069787,2148243867,2147198610,3366,4,13,10504
1371937486,5804,475.9599914550781000,6.2449002265930180,34.1433982849121100,62.2240715026855500,611.1954956054688000,6.2220101356506350,51.2662811279296900,53,102,87,79,78,15284,2147749540,2147424100,2148010038,2147873654,2147631990,2147072374,2148244489,2147195547,2053,4,13,4928
1371937649,5807,464.5599975585937500,6.3610000610351560,34.1324005126953100,67.7581329345703100,607.2158813476562000,6.3509202003479000,50.4989395141601560,53,103,88,79,78,15280,2147746779,2147425188,2148004946,2147871744,2147633682,2147071643,2148240192,2147200201,1016,4,13,9295
1371937808,5809,453.3900146484375000,6.5057997703552250,34.1157989501953100,75.9461364746093800,602.9279174804688000,6.4896450042724610,49.4306907653808600,51,104,90,79,78,15279,2147746669,2147427273,2148007698,2147872786,2147629229,2147075117,2148246080,2147203053,3037,4,13,53355
1371937938,5808,441.3800048828125000,6.7772002220153810,34.0920982360839840,86.5988311767578100,594.6958007812500000,6.7554779052734375,48.0713195800781250,52,103,86,79,78,15276,2147748178,2147425993,2148006262,2147874057,2147629467,2147067611,2148243913,2147198756,2643,4,13,2570
1371938053,5809,429.6600036621094000,7.0405998229980470,34.0844993591308600,97.7432937622070300,586.1945190429688000,7.0293369293212890,46.7178306579589840,51,104,87,81,76,15278,2147748361,2147424950,2148007936,2147873673,2147628864,2147075392,2148239533,2147201645,2471,4,13,26766
1371938158,5803,418.6099853515625000,7.3529000282287600,34.0796012878418000,109.3567962646484400,576.6439819335938000,7.3362050056457520,45.3655090332031250,51,103,92,81,77,15285,2147741842,2147425051,2148007835,2147872795,2147625718,2147075465,2148239158,2147202697,1533,4,13,62844
1371938261,5807,407.6499938964844000,7.6174998283386230,34.0836982727050800,118.2024993896484400,567.9609985351562000,7.6144890785217285,44.3554382324218750,50,104,86,79,75,15281,2147741165,2147427520,2148006354,2147872219,2147625792,2147076617,2148235428,2147203072,917,4,12,59465
1371938364,5811,396.8099975585937500,7.8671998977661130,34.0856018066406250,124.4041976928711000,560.2630004882812000,7.8606572151184080,43.6389694213867200,50,105,82,78,75,15272,2147744347,2147427437,2148004635,2147872073,2147624996,2147079561,2148235364,2147198189,3280,4,13,37916
1371938483,5809,386.2600097656250000,8.1298999786376950,34.0913009643554700,130.3325958251953000,552.4791870117188000,8.1090564727783200,42.9648399353027340,51,105,86,80,76,15276,2147741613,2147428800,2148006793,2147873718,2147624301,2147083858,2148233810,2147201508,2719,4,13,28250
1371938634,5807,376.4500122070312500,8.4134998321533200,34.0913009643554700,138.4048004150390600,543.5526123046875000,8.3933067321777340,42.0992088317871100,50,107,90,81,75,15278,2147741741,2147427730,2148006802,2147872640,2147621110,2147082614,2148232585,2147200859,3226,4,13,43875
1371938815,5809,364.3900146484375000,8.6316995620727540,34.0896987915039060,150.3751068115234400,536.5578002929688000,8.6155891418457030,40.9778518676757800,50,104,84,80,73,15278,2147738624,2147427638,2148005659,2147874596,2147623533,2147086016,2148235254,2147202249,2663,4,13,11274
1371938954,5809,353.6199951171875000,8.9806995391845700,34.0881996154785160,163.3047943115234400,525.6882934570312000,8.9602413177490230,39.7762413024902340,50,104,86,81,73,15279,2147739264,2147426614,2148004278,2147871689,2147620187,2147086692,2148228041,2147202779,2439,4,13,53786
1371939103,5810,341.5899963378906000,9.3063001632690430,34.0961990356445300,171.4196014404297000,514.6165161132812000,9.3103818893432620,38.9859695434570300,50,106,88,80,72,15277,2147737206,2147429037,2148008932,2147870409,2147617014,2147089554,2148229677,2147200064,1426,4,13,27626
1371939230,5806,329.9700012207031000,9.6251001358032230,34.1038017272949200,181.7044982910156200,505.0490112304687500,9.6122274398803710,38.0990486145019500,50,105,89,81,71,15275,2147735387,2147433188,2148012224,2147872896,2147616877,2147091300,2148229641,2147200365,550,4,13,65141
1371939347,5809,319.1600036621094000,9.9582004547119140,34.1082992553710940,187.3636016845703000,494.5328979492187500,9.9432497024536130,37.5395317077636700,48,108,88,80,71,15278,2147735378,2147427977,2148015835,2147874880,2147616530,2147097380,2148229842,2147200365,1023,4,13,51313
1371939474,5803,307.7600097656250000,10.2400999069213870,34.1214981079101560,193.2348022460937500,484.5329895019531000,10.2573204040527340,36.9882888793945300,49,106,87,79,70,15274,2147737142,2147435949,2148042066,2147875181,2147613760,2147104036,2148234349,2147200457,137,4,13,58424
1371939589,5807,297.4100036621094000,10.6104001998901370,34.1310997009277340,198.8506927490234400,473.2051086425781000,10.6123199462890620,36.4452896118164060,49,106,87,79,69,15269,2147734555,2147438034,2148045257,2147869888,2147610724,2147110125,2148240265,2147204086,2583,4,13,26122
1371939706,5810,286.5299987792969000,11.1295995712280270,34.1780014038085940,210.5162963867187500,457.1990966796875000,11.1125497817993160,35.4816398620605500,48,108,87,79,69,15274,2147730358,2147441746,2148065106,2147875300,2147607076,2147110052,2148245376,2147202834,2605,3,13,28045
1371939833,5806,274.8599853515625000,11.5041999816894530,34.1968994140625000,217.5953063964843800,444.9992980957031000,11.4928102493286130,34.8807907104492200,49,103,88,81,67,15277,2147728292,2147452717,2148097380,2147873755,2147606646,2147121078,2148260342,2147206701,1660,3,14,48674
1371939950,5807,264.3099975585937500,11.9841003417968750,34.2229995727539060,220.3775024414062500,429.0985107421875000,11.9871997833251950,34.4738693237304700,49,104,89,81,68,15274,2147732589,2147466486,2148130121,2147876781,2147605787,2147130752,2148276617,2147207286,566,3,13,14685
1371940077,5811,253.5000000000000000,12.4883003234863280,34.2500000000000000,221.4078063964843800,413.8494873046875000,12.4601097106933600,34.1777801513671900,48,106,86,80,67,15273,2147729389,2147481590,2148176310,2147874587,2147602029,2147143460,2148297984,2147210496,2656,3,13,48035
1371940216,5807,242.1000061035156200,13.0166997909545900,34.2727012634277340,221.0348052978515600,397.0333862304687500,12.9803400039672850,33.9374198913574200,49,106,85,79,67,15263,2147731638,2147513737,2148244690,2147875227,2147599451,2147162349,2148329005,2147212516,1475,4,14,19934
1371940357,5806,231.5399932861328000,13.5082998275756840,34.3050994873046900,220.1777954101562500,378.2073974609375000,13.5613002777099610,33.6960906982421900,49,104,86,80,67,15276,2147732644,2147554587,2148332187,2147873609,2147598308,2147195218,2148370724,2147216192,1358,3,14,12396
1371940520,5805,221.2899932861328000,13.9954996109008790,34.3075981140136700,210.9089050292968800,364.2148132324219000,13.9922199249267580,33.9989585876464840,49,107,88,80,68,15268,2147735094,2147596379,2148418404,2147874678,2147600064,2147218349,2148404992,2147220608,2535,3,14,64277
1371940680,5805,209.7400054931640600,14.4649000167846680,34.3507003784179700,208.5648040771484400,348.6878967285156000,14.4696102142333980,33.8990097045898440,50,108,86,81,66,15256,2147757696,2147719405,2148667510,2147875163,2147603446,2147288027,2148525650,2147234066,1817,2,15,27141
1371940819,5809,198.7200012207031200,15.6833000183105470,34.5033988952636700,215.1869964599609400,309.2908020019531000,15.6777896881103520,32.9448814392089840,51,105,85,80,64,15264,2147791213,2147864950,2148933513,2147872978,2147613860,2147379236,2148653796,2147238601,2029,3,15,7926
1371940874,5809,194.1900024414062500,15.7987003326416020,34.5251998901367200,217.8654937744140600,304.0490112304687500,15.8382701873779300,32.7230796813964840,50,106,84,80,66,15259,2147819392,2147965650,2149117412,2147877156,2147622244,2147435026,2148740150,2147247003,1498,3,14,58682
1371940949,5809,187.9700012207031200,16.1643009185791000,34.5803985595703100,220.4371032714843800,293.5091857910156000,16.1607799530029300,32.4334907531738300,50,108,85,79,66,15261,2147857965,2148104192,2149353563,2147877796,2147639140,2147527131,2148851812,2147258898,1467,3,14,3373
1371941004,5808,183.6300048828125000,16.2479000091552730,34.5960006713867200,221.7066040039062500,290.7739868164062500,16.2444496154785160,32.3272781372070300,49,106,86,79,65,15260,2147908352,2148252608,2149615616,2147880128,2147654747,2147619849,2148987218,2147264246,1664,3,15,41789
1371941059,5806,179.1900024414062500,16.3398990631103500,34.6085014343261700,221.8520965576172000,286.7309875488281000,16.3680896759033200,32.2618789672851560,49,106,85,81,65,15265,2147940726,2148335122,2149726034,2147876489,2147667648,2147663972,2149043757,2147272402,1752,3,14,8397
1371941114,5810,175.0599975585937500,16.8157005310058600,34.6599006652832000,220.4452056884765600,272.4587097167969000,16.8043994903564450,32.1336097717285160,50,106,85,80,66,15258,2147927369,2148233408,2149490587,2147876214,2147665984,2147615524,2148926811,2147265280,1717,3,15,38485
1371941181,5810,170.9700012207031200,17.3745002746582030,34.7248992919921900,219.7118988037109400,254.3421020507812500,17.3579196929931640,31.9180107116699220,52,107,84,80,64,15258,2147945398,2148241920,2149467510,2147876233,2147670089,2147630720,2148928310,2147267712,1041,2,15,15405
1371941261,5811,167.5099945068359400,17.5282001495361330,34.7500000000000000,220.7283020019531200,249.0446929931640600,17.5197200775146500,31.7905693054199220,55,109,88,82,64,15253,2147931300,2148153234,2149279158,2147876763,2147666029,2147574125,2148824905,2147258779,45,3,15,15086
1371941376,5811,163.9400024414062500,17.9255008697509770,34.7986984252929700,220.5068969726562500,236.5617065429687500,17.9009609222412100,31.6284904479980470,57,114,90,81,64,15246,2147946212,2148153956,2149249417,2147878354,2147670829,2147586358,2148807131,2147260397,510,3,14,13056
1371941503,5811,160.0599975585937500,18.3577995300292970,34.8507995605468750,219.9360961914062500,222.4606933593750000,18.3315696716308600,31.4639892578125000,62,115,88,80,63,15242,2148194797,2148863186,2150489819,2147883529,2147771748,2147992886,2149398326,2147300873,489,3,14,39681
1371941615,5808,155.4600067138672000,18.5585002899169920,34.8783988952636700,219.8818054199218800,215.5162963867187500,18.5436496734619140,31.3717403411865230,65,111,89,81,63,15239,2148078793,2148422692,2149637019,2147879890,2147726628,2147748452,2148991488,2147270665,153,3,15,28251
1371941694,5805,151.3699951171875000,18.8097991943359380,34.9128990173339840,220.1278076171875000,207.7420043945312500,18.7810897827148440,31.2528800964355470,67,110,85,82,63,15234,2148303634,2148937718,2150459547,2147885988,2147815433,2148046829,2149388992,2147303314,237,3,15,13150
1371941773,5807,147.8200073242187500,19.0191001892089840,34.9463005065918000,220.3708038330078000,201.1040039062500000,18.9838504791259770,31.1502094268798830,72,113,89,82,63,15233,2148769371,2150025526,2152255881,2147897078,2148016941,2148689133,2150272393,2147366820,269,2,15,64980
1371941878,5809,143.9400024414062500,19.1480998992919920,34.9686012268066400,220.9821014404297000,195.5843963623047000,19.1524791717529300,31.0436897277832030,77,115,88,81,64,15228,2149004516,2150446125,2152879497,2147908160,2148117248,2148941485,2150587035,2147390034,223,2,15,38471
1371942005,5808,140.1100006103515600,19.5249004364013670,35.0248985290527340,222.1354980468750000,183.9187927246093800,19.5089607238769530,30.8274002075195300,85,120,89,83,61,15222,2149329600,2151051245,2153841974,2147921316,2148260306,2149277101,2150997001,2147425426,2388,2,15,2525
1371942132,5808,136.0200042724609400,19.5849990844726560,35.0326995849609400,223.0756988525390600,181.7572021484375000,19.5750293731689450,30.7502708435058600,88,118,87,82,62,15207,2149688329,2151610450,2154640576,2147929782,2148410770,2149578084,2151342976,2147452754,1955,2,15,49800
1371942235,5810,130.7700042724609400,19.8068008422851560,35.0567016601562500,222.7142944335937500,175.3675994873047000,19.7703704833984380,30.6832599639892580,92,121,89,83,60,15197,2150282066,2152505984,2155864877,2147954422,2148671433,2150054829,2151885275,2147498651,2086,3,15,36181
1371942290,5811,127.5000000000000000,19.8931007385253900,35.0688018798828100,223.3468933105468800,172.2725982666015600,19.8650093078613280,30.6096591949462900,97,121,89,83,62,15191,2150820873,2153363510,2157061412,2147973156,2148896283,2150473545,2152356873,2147535104,2722,2,15,56387
1371942357,5810,123.4199981689453100,20.0657005310058600,35.0863990783691400,223.5372009277343800,165.8795013427734400,20.0605392456054700,30.5149307250976560,105,120,88,84,61,15191,2151583844,2154456813,2158485650,2148008676,2149214464,2151018569,2152965138,2147594797,106,2,15,16840
1371942436,5812,119.2300033569336000,20.5508003234863280,35.1470985412597660,223.6683959960937500,151.3513946533203000,20.5051403045654300,30.3160705566406250,119,127,91,84,62,15174,2152552502,2155861504,2160341632,2148050450,2149612096,2151661513,2153664896,2147661632,797,2,15,56301
1371942529,5809,115.8199996948242200,20.6676006317138670,35.1664009094238300,226.3791961669922000,146.4293060302734400,20.6558609008789060,30.1161594390869140,120,126,90,82,62,15169,2153596800,2157347355,2162269988,2148098422,2150060077,2152342939,2154399222,2147730605,1007,2,15,29136
1371942668,5809,112.3700027465820300,21.0118007659912100,35.1985015869140600,227.2816925048828000,135.9591979980468800,20.9766407012939450,29.9346694946289060,129,126,90,83,60,15154,2154984173,2159153188,2164440658,2148154486,2150635227,2153110326,2155186624,2147810934,979,2,15,54596
1371942867,5809,107.5000000000000000,21.1338005065917970,35.1879005432128900,230.2534027099609400,131.2449035644531200,21.1211605072021500,29.7284793853759770,134,129,91,83,61,15120,2157886582,2162959670,2168946386,2148276233,2151654189,2154436553,2156643200,2147960905,550,2,16,3801
1371942946,5807,103.5899963378906200,21.2961006164550780,35.2126998901367200,231.1869964599609400,126.2024993896484400,21.2758102416992200,29.6181392669677730,151,132,92,83,61,15093,2160761664,2166751094,2173363849,2148426770,2152626605,2155747428,2158067264,2148122633,1187,2,15,11183
1371943025,5807,99.1999969482421900,21.4755001068115230,35.2386016845703100,233.2247924804687500,119.9735031127929700,21.4669303894042970,29.4403400421142580,172,137,91,84,61,15070,2164527241,2171707117,2178864091,2148616274,2154006774,2157555026,2159948032,2148330121,1176,2,15,20248
1371943080,5805,96.3499984741211000,21.5585002899169920,35.2397994995117200,234.9080963134765600,117.0590972900390600,21.5564002990722660,29.3234004974365230,183,142,92,84,61,15033,2167624000,2175778953,2183211072,2148783990,2155104365,2158957083,2161364964,2148492379,612,1,16,55591
1371943137,5806,93.8000030517578100,21.6560001373291000,35.2420005798339840,236.4600067138672000,114.1297988891601600,21.6463394165039060,29.2132091522216800,179,136,92,85,60,15055,2170802898,2179873344,2187270308,2148935890,2156325851,2160482514,2162865225,2148663049,3320,2,16,48401
1371943192,5808,91.9000015258789000,21.7942008972167970,35.2322006225585940,237.8802947998047000,109.9222030639648400,21.7755794525146500,29.0933990478515620,120,131,92,83,60,15086,2173691958,2183363657,2190564288,2149093558,2157555949,2162025792,2164279396,2148821897,3131,2,16,61409
1371943259,5809,90.5100021362304700,21.9538002014160160,35.2425994873046900,239.7597961425781200,105.6636962890625000,21.9064292907714840,28.9528598785400400,102,128,89,85,59,15112,2176338176,2186361197,2193200374,2149184905,2158868854,2163739145,2165764498,2148972480,2964,2,16,62516
1371943506,5810,88.4700012207031200,22.3761005401611330,35.2843017578125000,242.0802001953125000,91.3418731689453100,22.3469505310058600,28.6660308837890620,78,120,88,84,59,15145,2183655433,2193387547,2198156690,2149403200,2163381595,2169271579,2169757394,2149341394,692,2,15,24060
1371943597,5810,85.9000015258789000,22.5408000946044920,35.3176994323730500,243.7384033203125000,85.4500579833984400,22.5283908843994140,28.5175094604492200,75,120,91,83,58,15148,2188975817,2198725979,2202773641,2149706294,2167048475,2173575286,2172939913,2149658505,562,2,16,50148
1371943652,5807,83.5999984741211000,22.6348991394042970,35.3310012817382800,244.8460998535156200,82.1489181518554700,22.6300907135009770,28.4269104003906250,72,119,90,83,57,15136,2194305709,2204312274,2208001088,2150070299,2170477613,2177502400,2175865572,2149963099,605,2,15,18474
1371943707,5806,81.0199966430664000,22.8777008056640620,35.3718986511230500,245.3087005615234400,75.1049728393554700,22.8472595214843750,28.3182201385498050,70,122,91,84,56,15140,2200347968,2210490523,2213616292,2150505938,2174716845,2182392585,2179604306,2150362432,192,2,16,5539
1371943786,5808,76.9700012207031200,22.9759998321533200,35.3667984008789060,247.5099029541015600,71.1082077026367200,22.9705696105957030,28.1717090606689450,67,123,87,84,60,15116,2210731574,2221098816,2223508745,2151418834,2182369938,2190744603,2185651264,2151035629,3174,2,16,5166
1371943841,5803,73.5400009155273400,23.0783004760742200,35.3810997009277340,248.8386993408203000,68.0197982788086000,23.0659008026123050,28.0753993988037100,66,122,90,84,58,15127,2220425819,2230959606,2232762944,2152283090,2189902381,2198994797,2191763739,2151699346,3347,2,16,22340
1371943896,5808,70.2300033569336000,23.1462993621826170,35.3851013183593750,249.5809936523437500,65.2930068969726600,23.1501007080078120,28.0095405578613280,65,122,90,85,57,15120,2228739949,2238706349,2239876461,2153332955,2197260982,2206501650,2196859053,2152276690,41,2,15,10711
1371943951,5810,67.5899963378906200,23.2021999359130860,35.3166999816894500,249.9503021240234400,62.8189811706543000,23.2265205383300780,27.9630508422851560,65,124,93,84,56,15120,2238177243,2248112155,2248603840,2154479680,2204507913,2214138048,2202334235,2152967762,2936,2,16,42789
1371944006,5808,65.7600021362304700,23.6103000640869140,35.3452987670898440,248.9454956054687500,51.7980384826660160,23.5672798156738280,27.8698005676269530,62,120,88,84,59,15117,2242091913,2251197677,2250895533,2154911899,2209325933,2218921682,2205446043,2153299236,3327,2,16,21392
1371944075,5808,64.7300033569336000,23.7810001373291000,35.3391990661621100,250.0780029296875000,45.9657287597656250,23.7478408813476560,27.7491703033447270,60,121,90,84,55,15117,2247718811,2257327058,2257035401,2155499501,2213648694,2223462546,2208651218,2153681444,3460,2,16,41540
1371944477,5806,62.4799995422363300,24.3469009399414060,35.2812004089355500,250.0901947021484400,26.8708400726318360,24.3401107788085940,27.5140895843505860,58,120,92,85,61,15121,2251355492,2259851017,2258646299,2156186715,2222792813,2230918701,2212093723,2153976393,3309,2,16,56048
1371944748,5807,59.9099998474121100,24.3234996795654300,35.2066993713378900,249.8981933593750000,27.2294197082519530,24.3289699554443360,27.5265693664550780,58,121,95,84,57,15124,2271160374,2279468653,2277016292,2158842121,2244389001,2252160512,2226197037,2155703268,1892,2,16,21213
1371944803,5806,58.1100006103515600,24.3789997100830080,35.1043014526367200,249.4028015136718800,25.8541297912597660,24.3717002868652340,27.5307807922363280,59,124,92,83,57,15101,2277005330,2284572699,2281718299,2160244233,2251416813,2258547812,2230175552,2156249444,1890,1,16,59159
1371944882,5806,56.2900009155273440,24.4302997589111330,35.1157989501953100,249.0970001220703000,24.0459995269775400,24.4278907775878900,27.5217895507812500,60,119,92,84,59,15110,2281598793,2288565366,2285380443,2161070884,2256589659,2263184978,2233308096,2156691574,1266,1,16,43175
1371945021,5808,53.3899993896484400,24.5736007690429700,35.1258010864257800,248.1390991210937500,19.2514591217041000,24.5769691467285160,27.5040702819824220,56,120,92,84,54,15107,2299523812,2306554230,2303485293,2164949339,2275880384,2281660105,2245855963,2158457280,1250,1,17,28344
1371945076,5807,51.3400001525878900,24.6471996307373050,35.1211013793945300,247.8383026123047000,17.0163097381591800,24.6465091705322270,27.4895305633544920,56,120,92,84,55,15097,2311550354,2319346688,2315965952,2167917403,2288796434,2293711972,2253636452,2159813888,2242,2,16,63784
1371945131,5811,49.2299995422363300,24.6494007110595700,35.1195983886718750,247.8598022460937500,16.7472305297851560,24.6548805236816400,27.4854393005371100,56,121,95,84,56,15117,2323723382,2330849691,2326527926,2170561462,2302947830,2307262802,2262763090,2161067638,2389,1,16,21985
1371945186,5808,47.0400009155273440,24.6888999938964840,35.1217002868652340,247.5527954101562500,15.3394804000854500,24.6986999511718750,27.4814701080322270,57,118,91,85,56,15117,2342171017,2349676388,2346060544,2174530989,2321595282,2325151149,2275539547,2163112402,2061,1,16,49976
1371945241,5807,44.7200012207031250,24.7702007293701170,35.1259002685546900,247.2032012939453000,12.5446395874023440,24.7857093811035160,27.4621391296386720,57,121,91,84,58,13395,2358718912,2365173540,2361383277,2180725421,2337658176,2340564059,2286112530,2165121545,1456,1,16,36133
1371945319,5808,40.6500015258789060,25.1002006530761720,35.1528015136718750,245.1134033203125000,2.2470469474792480,25.1067104339599600,27.4265708923339840,54,117,91,82,58,15117,2382378102,2388168969,2385323739,2192235657,2360605540,2360291282,2299003977,2168345252,950,2,16,48653
1371945374,5807,37.4000015258789060,25.3433990478515620,35.1792984008789060,243.3103942871093800,-4.6184058189392090,25.3210697174072270,27.4211292266845700,55,119,91,83,58,15127,2394619017,2398658880,2395123419,2198788873,2389108745,2386526500,2316717156,2171683437,909,2,15,29507
1371945429,5807,34.7099990844726560,25.5160007476806640,35.1974983215332000,241.8871002197265600,-10.8555202484130860,25.5160503387451170,27.4071998596191400,53,119,89,85,59,15126,2415616027,2419494372,2416300452,2209228251,2410465910,2405590738,2329436434,2174919113,1179,1,17,57358
1371945484,5815,32.4399986267089840,25.6681003570556640,35.2145004272460940,240.5774993896484400,-15.8663301467895500,25.6728706359863280,27.4036006927490230,54,115,90,84,59,15117,2421403876,2425181613,2420995894,2214983469,2421761398,2413538194,2333157970,2176278043,2006,1,17,17160
1371945539,5806,30.5499992370605470,25.8335990905761720,35.2336006164550800,238.6380004882812500,-22.9324092864990230,25.8942794799804700,27.4030704498291000,54,115,91,84,51,15118,2473536448,2481044754,2481013906,2238988233,2472053595,2462405110,2367635190,2184200960,1969,1,17,53073
1371945594,5807,29.1200008392334000,26.1254005432128900,35.2827987670898440,235.9714050292968800,-29.9751892089843750,26.1152896881103500,27.4361095428466800,53,117,89,83,55,15120,2454107163,2460829403,2459712630,2235659629,2462601654,2450699410,2359083154,2183095798,2398,2,16,50675
1371945699,5806,27.5599994659423830,26.1907005310058600,35.2979011535644500,234.2295989990234400,-32.9334793090820300,26.2082195281982420,27.4784908294677730,53,116,88,83,51,15128,2406566747,2408093650,2403967277,2223319606,2427178230,2411359250,2328016539,2178296822,3119,1,16,54403
1371945826,5808,25.1700000762939450,26.1959991455078120,35.2971000671386700,233.8724060058593800,-33.5728416442871100,26.2283096313476560,27.4869194030761720,52,114,89,83,56,15117,2525076013,2535905408,2539348864,2278023853,2554672722,2534224100,2414402459,2196072448,2908,1,16,60647
